Cross départemental des Sapeurs Pompiers de l'Héra - 11/03/2012

10 Km


Pl Do. Nom - Surname Prénom - Name S-Cat /cat Club - Team TEMPS - Time Km/h /sx
1 864 JONISSE ABEL MJU CIVIL 1 TAIL-AVENTURE 00:38:55 15,4 1
2 636 BERTRAND CYRIL MSE 1 CSP JEAN GUIZONNIER 00:39:40 15,1 2
3 773 MONZO JONATHAN MSE 2 MONTAGNAC 00:40:35 14,8 3
4 595 MORGANA LEO MJU 1 MONTPELLIER 00:40:35 14,8 4
5 623 DI SCALA VINCENT MSE 3 MONTPELLIER 00:40:58 14,6 5
6 857 VIDAL MICHEL MV1 CIVIL 1 TAIL-AVENTURE 00:41:11 14,6 6
7 596 RUEDAS REMI MJU 2 MONTPELLIER 00:41:22 14,5 7
8 855 VIDAL GAEL MSE CIVIL 1 TAIL-AVENTURE 00:41:34 14,4 8
9 786 GRIALOU WILIAM MSE 4 PIGNAN 00:42:46 14,0 9
10 560 JACQUEMET JULES MJU CIVIL 2 CIVIL 00:43:05 13,9 10
11 719 FERRARA FABIEN MSE 5 BEZIERS 00:43:27 13,8 11
12 629 BOUCHARD FLORIAN MSE 6 CSP JEAN GUIZONNIER 00:43:45 13,7 12
13 880 PEDROS RAPHAEL MV1 CIVIL 2 CIVIL 00:44:09 13,6 13
14 638 LACAZE GUILLAUME MSE 7 CSP JEAN GUIZONNIER 00:44:56 13,4 14
15 627 VIDAL LIN MSE 8 CSP JEAN GUIZONNIER 00:45:13 13,3 15
16 663 NEGRIER GERALD MV1 1 AGDE 00:45:18 13,2 16
17 914 LAVERGNE JEAN-LUC MV1 2 FLORENSAC 00:45:43 13,1 17
18 692 RAYNAUD PHILIPPE MV1 CIVIL 3 TAIL-AVENTURE 00:45:45 13,1 18
19 635 ELHAJJAMI AZEDINE MSE 9 CSP JEAN GUIZONNIER 00:46:06 13,0 19
20 720 GALINIER NORBERT MSE 10 BEZIERS 00:46:14 13,0 20
21 861 MAYAUD DAVID MV1 CIVIL 4 TAIL-AVENTURE 00:46:28 12,9 21
22 865 LAMORQUE ERIC MV1 CIVIL 5 TAIL-AVENTURE 00:46:28 12,9 22
23 714 ORTIZ JACQUES MSE 11 MONTADY 00:46:41 12,9 23
24 724 TOMAS JEREMY MSE 12 BEZIERS 00:46:57 12,8 24
25 822 ROUARD DENIS MV1 3 PAYS DE THONGUE 00:47:25 12,7 25
26 730 CROUZET ALAIN MV1 4 LODEVE 00:47:54 12,5 26
27 878 RAVAILLE DIDIER MSE CIVIL 2 CIVIL 00:48:06 12,5 27
28 883 ROUVIERE STEPHANE MV1 CIVIL 6 NANT (12) 00:48:29 12,4 28
29 932 DU BOULLAY RAPHAEL MSE 13 CODIS 00:48:46 12,3 29
30 729 DEBIEN NICOLAS MSE 14 LODEVE 00:48:46 12,3 30
31 646 SUBRA CHRISTOPHE MSE 15 BEZIERS 00:48:58 12,3 31
32 702 SILHOL HERVE MSE 16 ST JEAN DE LA BLAQUIERE 00:49:13 12,2 32
33 860 ALBAGNAC THIERRY MV1 CIVIL 7 TAIL-AVENTURE 00:49:13 12,2 33
34 701 CARILLO SEBASIEN MSE 17 MIREVAL 00:49:40 12,1 34
35 776 DANCE BRANDON MJU 3 MONTAGNAC 00:49:48 12,0 35
36 918 CEIA JULIEN MSE 18 BALARUC 00:49:48 12,0 36
37 859 CROSS PHILIPPE MSE CIVIL 3 TAIL-AVENTURE 00:50:03 12,0 37
38 726 CALAS DANIEL MV1 5 LODEVE 00:50:31 11,9 38
39 594 MAYNADIER ROMAIN MJU 4 MONTPELLIER 00:50:44 11,8 39
40 943 VERGE ALAIN MV1 6 CODIS 00:51:25 11,7 40
41 549 DANCE SEBASTIEN MSE 19 ST MATHIEU DE TREVIERS 00:51:42 11,6 41
42 915 FENEL PATRICK MV2 1 FLORENSAC 00:51:43 11,6 42
43 592 BENAMAR YACINE MJU 5 MONTPELLIER 00:51:44 11,6 43
44 597 SARDIN JEREMY MJU 6 MONTPELLIER 00:51:49 11,6 44
45 869 COMBES CEDRIC MSE CIVIL 4 CIVIL 00:51:50 11,6 45
46 940 DURAND CHRISTOPHE MV2 2 CODIS 00:51:57 11,5 46
47 676 LIFANTE ROMAIN MSE 20 BEDARIEUX 00:52:04 11,5 47
48 718 CALVET JEROME MSE 21 BEZIERS 00:52:12 11,5 48
49 686 DURAND MICHEL MV2 CIVIL 1 TAIL-AVENTURE 00:52:34 11,4 49
50 787 SANCHIS FABIEN MSE 22 PIGNAN 00:52:44 11,4 50
51 836 PEOUX BENJAMIN MJU 7 NISSAN LES ENSERUNES 00:52:52 11,3 51
52 862 CATHALA FLORENT MSE CIVIL 5 TAIL-AVENTURE 00:53:10 11,3 52
53 640 GOMEZ PIERRE MSE 23 CSP MARX DORMOY 00:53:23 11,2 53
54 567 RICARD SIMON MSE 24 PEZENAS 00:53:34 11,2 54
55 548 BEIER THOMAS MSE 25 ST MATHIEU DE TREVIERS 00:53:45 11,2 55
56 938 GAVI CEDRIC MSE 26 CODIS 00:53:48 11,2 56
57 933 BRIAT PATRICE MSE 27 CODIS 00:54:04 11,1 57
58 717 BRIANCON GUILHELM MSE 29 BEZIERS 00:54:04 11,1 58
59 728 PEREZ NICOLAS MSE 28 LODEVE 00:54:04 11,1 59
60 558 LENFANT EMMANUEL MSE CIVIL 6 CIVIL 00:54:24 11,0 60
61 603 BOTTEX GUILLAUME MJU 8 MONTPELLIER 00:54:31 11,0 61
62 564 REMAZEILLES AXEL MJU 9 ST MATHIEU DE TREVIERS 00:54:33 11,0 62
63 721 GUERRERO ROMAIN MSE 30 BEZIERS 00:54:37 11,0 63
64 727 CALAS FREDERIQUE MSE 31 LODEVE 00:55:23 10,8 64
65 630 ARMINGAUD FLORIAN MSE 32 CSP JEAN GUIZONNIER 00:55:58 10,7 65
66 551 KLEIN DIDIER MV1 CIVIL 8 CIVIL 00:56:41 10,6 66
67 886 CARAUD LAURENT MSE 33 LUNAS 00:56:50 10,6 67
68 674 CARNET JEROME MSE 34 LA GRANDE MOTTE 00:57:00 10,5 68
69 626 QUESADA JEREMY MSE 35 MONTPELLIER 00:57:06 10,5 69
70 715 BREVAL CHRISTOPHE MSE 36 MONTADY 00:57:14 10,5 70
71 541 RODRIGUEZ JULIEN MCA 1 ST MATHIEU DE TREVIERS 00:57:18 10,5 71
72 937 VIRIGLIO GILLES MV1 7 CODIS 00:57:22 10,5 72
73 863 CERDA JACQUES MV1 CIVIL 9 TAIL-AVENTURE 00:57:34 10,4 73
74 876 MULTIER GILBERT MV3 CIVIL 1 CIVIL 00:57:39 10,4 74
75 664 MARTINEZ JEAN-MARC MV1 8 AGDE 00:57:49 10,4 75
76 535 CABROL ANAIS FSE 1 MAGALAS 00:58:22 10,3 1
77 711 PRADEILLES CEDRIC MJU 10 MONTADY 00:58:26 10,3 76
78 601 AMALVY LOIC MJU 11 MONTPELLIER 00:58:33 10,2 77
79 604 LACRAMPE NICOLAS MJU 12 MONTPELLIER 00:58:34 10,2 78
80 775 LESCURE GREGORY MJU 13 MONTAGNAC 00:58:52 10,2 79
81 882 BALSAN LIONEL MV1 CIVIL 10 NANT (12) 00:58:54 10,2 80
82 600 LAMARRE ANDEW MJU 14 MONTPELLIER 00:58:58 10,2 81
83 599 CANUEL LUCAS MJU 15 MONTPELLIER 00:59:26 10,1 82
84 884 PLANE CIRIL MSE 37 LUNAS 00:59:32 10,1 83
85 823 BONNAFOUS JEAN MARC MV1 9 PAYS DE THONGUE 00:59:38 10,1 84
86 501 MANENC AURELIEN MSE 38 LUNAS 00:59:51 10,0 85
87 550 DIAZ HUGO MSE 39 ST MATHIEU DE TREVIERS 01:00:14 10,0 86
88 545 DIMEGLIO LUDO MSE 40 ST MATHIEU DE TREVIERS 01:00:15 10,0 87
89 536 GOUJON XAVIER MSE 41 MAGALAS 01:00:46 9,9 88
90 821 HUGARD HERVE MSE 42 PAYS DE THONGUE 01:00:59 9,8 89
91 628 DUMONT PIERRE MV2 3 CSP JEAN GUIZONNIER 01:01:25 9,8 90
92 537 LACELARIER MICHAEL MSE 43 MAGALAS 01:01:26 9,8 91
93 637 BULOT TONY MSE 44 CSP JEAN GUIZONNIER 01:01:26 9,8 92
94 516 LAGEZE REMI MJU 16 LUNAS 01:01:40 9,7 93
95 722 LOPEZ FLORENT MV1 10 BEZIERS 01:02:10 9,7 94
96 538 CHAALES ERIC MV1 11 MAGALAS 01:03:14 9,5 95
97 777 BARBOUTY PIERRE MV1 12 MONTAGNAC 01:03:16 9,5 96
98 912 FRANCOIS JONATHAN MJU 17 FLORENSAC 01:03:52 9,4 97
99 774 PIARD SEBASTIEN MSE 45 MONTAGNAC 01:04:39 9,3 98
100 678 THOREL CHRISTOPHE MV1 CIVIL 11 CIVIL 01:05:09 9,2 99
101 565 MANUEL MICHEL MV1 13 ST MATHIEU DE TREVIERS 01:06:18 9,0 100
102 740 SANCHEZ ANTONY MSE 0 COURMONTERAL 00:00:00 ABD Abd
103 779 LIDOVE NICOLAS MSE 0 LUNEL 00:00:00 ABD Abd